Location: Bovolone
(45.2500°N, 11.1167°E)
Time: 11:13:38
(UTC+00:00)

Daily predictions for brighter satellites

Satellite Brightness Start Highest point End
(mag) Time Altitude Azimuth Time Altitude Azimuth Time Altitude Azimuth
Cosmos 1302 Rocket 4.1 16:53:09 10° SSW 16:58:21 87° WNW 17:03:38 10° NNE
Unknown 3.9 16:54:56 10° SW 16:58:58 54° SE 17:03:02 10° ENE
Cosmos 968 Rocket 3.8 16:54:26 10° N 16:59:32 46° ENE 17:04:35 10° SE
Unknown 4.2 16:56:03 10° W 16:59:39 45° NNW 17:03:16 10° NE
Cosmos 1602 Rocket 4.0 16:56:17 10° NNW 17:00:36 69° W 17:04:55 10° S
Unknown 3.8 16:56:40 10° SW 17:00:43 56° SE 17:04:48 10° ENE
Cosmos 1758 Rocket 3.8 16:56:26 10° N 17:00:46 50° ENE 17:05:06 10° SSE
ASTEX 1 4.0 16:56:15 10° NNE 17:00:47 35° E 17:05:19 10° SSE
Unknown 3.8 16:58:18 10° SW 17:02:22 58° SE 17:06:27 10° ENE
Ariane Rocket 4.3 16:58:51 10° ESE 17:02:36 21° ENE 17:06:20 10° NNE
Cosmos 1844 4.3 16:57:47 10° SSE 17:02:52 35° ESE 17:08:02 10° NE
Unknown 3.8 16:59:59 10° SW 17:04:03 60° SE 17:08:09 10° ENE
Unknown 3.7 17:03:16 10° SW 17:07:21 63° SE 17:11:28 10° ENE
Unknown 3.7 17:05:01 10° SW 17:09:06 68° SE 17:13:14 10° ENE
Unknown 3.6 17:05:10 10° SW 17:09:18 73° SE 17:13:26 10° ENE
Cosmos 1503 Rocket 4.1 17:04:22 10° NNW 17:09:28 54° ENE 17:14:30 10° SE
Unknown 3.6 17:06:46 10° SW 17:10:54 74° SE 17:15:03 10° ENE
YAOGAN 6 2.9 17:08:08 10° SE 17:11:39 45° ENE 17:15:10 10° N
Cosmos 1992 Rocket 4.2 17:06:47 10° S 17:11:47 48° ESE 17:16:48 10° NNE
CZ-4C R/B 3.0 17:04:35 10° NW 17:11:49 84° NE 17:20:04 10° SE
Unknown 3.6 17:09:49 10° SW 17:13:56 71° SE 17:18:03 10° ENE
SKYMED 2 3.6 17:10:09 10° NNE 17:14:26 57° E 17:18:43 10° S
Unknown 3.6 17:13:08 10° SW 17:17:16 75° SE 17:21:25 10° ENE
ATLAS 5 CENTAUR R/B 1.5 17:14:23 10° SSW 17:18:36 80° SE 17:23:20 10° NE
Unknown 3.6 17:14:51 10° SW 17:18:59 77° SE 17:23:08 10° ENE
YAOGAN 1 2.7 17:16:18 10° SSE 17:20:30 50° ENE 17:24:42 10° N
Unknown 3.6 17:16:27 10° SW 17:20:35 79° SSE 17:24:42 10° ENE
H-2A R/B 3.9 17:19:02 10° ENE 17:20:41 11° NE 17:22:22 10° NE
Unknown 3.6 17:18:09 10° SW 17:22:18 81° SSE 17:26:21 11° ENE
SL-4 R/B 1.7 17:24:51 10° WNW 17:28:46 75° NNE 17:31:42 15° ESE
Unknown 3.6 17:24:48 10° WSW 17:28:53 83° NNW 17:32:40 12° ENE
Unknown 3.6 17:24:46 10° SW 17:28:55 89° SSE 17:32:43 12° ENE
Unknown 3.6 17:26:25 10° WSW 17:30:34 89° NW 17:34:17 13° ENE
Cosmos 2263 Rocket 4.1 17:26:53 10° WSW 17:31:49 30° NW 17:36:45 10° N
EO 1 Delta rocket 4.0 17:27:43 10° SSE 17:32:10 46° ENE 17:36:41 10° N
Unknown 3.6 17:28:07 10° WSW 17:32:16 87° NW 17:35:55 13° ENE
Okean-O 4.1 17:28:20 10° S 17:32:31 41° W 17:36:44 10° NNW
CSL-04 Rocket 3.7 17:27:07 10° SSE 17:32:39 73° ENE 17:38:10 10° N
Unknown 3.6 17:29:45 10° WSW 17:33:54 85° NNW 17:37:30 14° ENE
CZ-2D R/B 3.8 17:30:57 10° SE 17:34:30 37° ENE 17:38:05 10° N
Unknown 3.6 17:31:23 10° WSW 17:35:32 83° NNW 17:39:04 14° ENE
Cosmos 1726 Rocket 3.5 17:31:24 10° S 17:35:46 69° E 17:40:08 10° NNE
Cosmos 2239 Rocket 4.4 17:31:47 10° N 17:37:59 84° E 17:44:07 10° S
Cosmos 1271 Rocket 2.7 17:34:23 10° N 17:38:21 86° E 17:42:20 10° S
Unknown 3.7 17:34:47 10° WSW 17:38:56 79° NNW 17:42:20 15° NE
Starlink (trailer) 3.7 17:36:25 10° WSW 17:40:34 77° NNW 17:43:54 15° NE
BREEZE M DEB (TANK) 2.0 17:39:09 10° WNW 17:41:26 64° NNE 17:44:18 19° E
Unknown 3.7 17:38:07 10° WSW 17:42:15 75° NNW 17:45:31 16° NE
Cosmos 2058 Rocket 3.1 17:38:44 10° S 17:42:58 53° E 17:47:14 10° NNE
Cosmos 1953 2.8 17:39:02 10° SSW 17:43:04 66° W 17:47:08 10° N
Unknown 4.0 17:39:37 10° WSW 17:43:37 57° NNW 17:46:49 15° NE
Cosmos 1605 Rocket 4.2 17:37:44 10° N 17:43:41 45° ENE 17:49:31 10° SSE
Cosmos 1821 Rocket 4.1 17:37:38 10° N 17:43:45 80° W 17:49:52 10° S
Unknown 3.8 17:39:44 10° WSW 17:43:52 74° NNW 17:47:05 16° NE
Lacrosse 5 3.4 17:40:56 10° NW 17:45:02 24° NNE 17:47:59 15° ENE
Shenzhou-11 Module 2.8 17:43:13 10° SW 17:45:44 31° SSE 17:46:27 26° SE
Cosmos 1833 Rocket 3.7 17:42:53 10° N 17:47:33 26° NE 17:49:45 21° E
Nadezhda 3 Rocket 4.4 17:43:36 10° SSW 17:49:50 70° W 17:56:11 10° N
Unknown 3.9 17:46:25 10° WSW 17:50:32 67° NNW 17:53:27 19° NE
Unknown 3.9 17:46:30 10° WSW 17:50:37 66° NNW 17:53:31 19° NE
Cosmos 1703 3.4 17:46:50 10° N 17:50:41 48° ENE 17:54:30 10° SSE
IRS-1A Rocket 4.5 17:45:38 10° SE 17:50:53 47° ENE 17:56:09 10° N
Unknown 3.9 17:47:16 10° WSW 17:51:24 66° NNW 17:54:17 19° NE
Cosmos 2228 3.3 17:48:33 10° SSW 17:52:56 74° W 17:57:19 10° N
ARGOS 4.4 17:52:56 20° ENE 17:53:39 20° ENE 17:57:29 10° NNE
Unknown 4.0 17:51:25 10° WSW 17:55:33 62° NNW 17:58:15 20° NE
Unknown 4.0 17:51:27 10° WSW 17:55:33 62° NNW 17:58:16 20° NE
Unknown 4.0 17:53:13 10° WSW 17:57:19 59° NNW 17:59:59 21° NE
Cosmos 1535 Rocket 4.4 17:52:04 10° N 17:58:21 87° E 18:04:30 10° S
COSMOS 2406 3.3 17:52:44 10° NNW 17:58:27 58° ENE 18:02:53 17° SE
Envisat 4.3 17:53:53 10° SSW 17:58:40 42° W 18:03:30 10° NNW
Cosmos 1934 Rocket 4.0 17:54:06 10° N 18:00:27 88° E 18:06:49 10° S
Unknown 4.1 17:56:33 10° WSW 18:00:38 57° NNW 18:03:09 22° NE
Unknown 4.1 17:57:11 10° WSW 18:01:16 58° NNW 18:03:45 22° NE
Unknown 4.1 17:58:09 10° WSW 18:02:14 57° NNW 18:04:41 23° NE
COSMO-SKYMED 1 3.8 17:58:21 10° N 18:02:31 45° WNW 18:06:38 10° SW
Cosmos 1726 1.9 17:59:04 10° S 18:02:43 79° E 18:06:23 10° N
Cosmos 2082 Rocket 3.3 17:58:12 10° N 18:02:53 25° NE 18:04:05 23° ENE
Cosmos 1939 Rocket 2.7 18:00:40 10° SSE 18:04:35 76° ENE 18:08:36 10° N
Cosmos 921 Rocket 3.1 18:00:52 10° SSW 18:05:23 88° WNW 18:09:55 10° NNE
Unknown 4.1 18:01:21 10° WSW 18:05:27 56° NNW 18:07:44 24° NE
Meteor 1-11 4.2 17:59:57 10° N 18:05:42 67° ENE 18:11:27 10° SSE
Cosmos 292 Rocket 3.7 18:01:12 10° S 18:05:50 57° ESE 18:10:31 10° NNE
DMSP B5D1-3 4.4 18:02:04 10° NNE 18:07:14 81° ESE 18:12:21 10° SSW
Unknown 4.2 18:04:49 10° WSW 18:08:53 53° NNW 18:11:03 25° NE
Cosmos 482 Debris 3.9 18:04:33 10° WNW 18:09:23 82° NNE 18:10:07 53° ESE
Unknown 4.2 18:06:29 10° WSW 18:10:32 52° NNW 18:12:37 26° NE
Unknown 4.3 18:08:13 10° W 18:12:15 51° NNW 18:14:16 26° NE
Cosmos 1356 3.3 18:09:35 10° SSW 18:13:01 85° WNW 18:16:29 10° N
Unknown 4.3 18:09:53 10° W 18:13:55 50° NNW 18:15:52 27° NE
Lacrosse 5 rocket 1.6 18:12:22 10° NW 18:16:07 60° SW 18:17:44 32° SSE
Unknown 4.4 18:13:12 10° W 18:17:13 48° NNW 18:19:02 28° NE
Unknown 4.4 18:14:55 10° W 18:18:57 47° NNW 18:20:40 29° NNE
Unknown 4.4 18:16:35 10° W 18:20:35 46° NNW 18:22:15 29° NNE
Cosmos 2084 4.1 18:16:17 10° SW 18:20:45 56° NW 18:24:06 17° NNE
CZ-4 R/B 3.7 18:18:12 10° SSW 18:21:43 27° W 18:25:19 10° NW
Unknown 4.4 18:18:11 10° W 18:22:11 46° NNW 18:23:47 30° NNE
Cosmos 2100 Rocket 4.4 18:16:29 10° N 18:22:12 37° ENE 18:23:03 35° E
Unknown 4.5 18:18:52 10° W 18:22:52 45° NNW 18:24:25 30° NNE
Unknown 4.4 18:21:22 10° W 18:25:23 46° NNW 18:26:49 32° NNE
Cosmos 1242 Rocket 3.7 18:24:42 10° NNW 18:28:13 44° W 18:31:44 10° SSW
Unknown 4.5 18:24:46 10° W 18:28:45 44° NNW 18:30:02 33° NNE
Cosmos 1844 Rocket 3.9 18:25:13 10° SW 18:30:33 42° WNW 18:35:55 10° NNE
ADEOS Rocket 3.7 18:24:26 10° NNE 18:31:49 44° E 18:38:45 10° SSE
Cosmos 1908 3.5 18:29:09 10° SSW 18:33:02 68° W 18:36:57 10° N
Cosmos 1153 Rocket 4.3 18:28:02 10° N 18:34:12 71° E 18:38:15 22° SSE
SPOT 3 Rocket 3.5 18:39:51 56° E 18:40:03 56° ENE 18:45:09 10° N
Ariane Rocket 3.6 18:36:08 10° S 18:41:08 58° W 18:46:11 10° NNW
Cosmos 2278 Rocket 2.0 18:38:07 10° SSW 18:43:45 69° ESE 18:46:34 30° NE
USA 238 DEB 4.0 18:42:09 10° S 18:47:26 43° SE 18:47:26 43° SE
USA 238 4.0 18:42:16 10° S 18:47:27 42° SE 18:47:27 42° SE
USA 234 3.4 18:57:30 49° SE 18:57:30 49° SE 19:03:21 10° SSW
H-2A R/B 2.1 18:59:39 64° NNE 18:59:39 64° NNE 19:04:27 10° N
SJ-11-01 4.5 18:59:52 60° SW 19:00:29 68° WSW 19:05:11 10° NNW
Cosmos 1777 Rocket 4.4 18:57:03 10° NNW 19:02:10 58° WSW 19:03:37 43° SSW
ATLAS 5 CENTAUR R/B 4.0 19:00:31 10° W 19:03:55 20° NNW 19:07:08 12° NNE
SL-4 R/B 4.1 19:05:15 10° W 19:07:19 19° WSW 19:07:19 19° WSW
CZ-2C R/B 3.9 19:10:55 45° NNE 19:10:55 45° NNE 19:15:13 10° N
Gbstr 26 Del rocket 4.1 19:10:20 10° WNW 19:16:51 73° NNE 19:17:24 70° ENE
NOSS 3-3 (A) 4.4 19:13:25 10° NW 19:20:52 68° NE 19:21:23 66° ENE
NOSS 3-3 (C) 4.4 19:13:31 10° NW 19:20:57 68° NE 19:21:28 66° ENE
Lacrosse 5 3.1 19:23:56 10° NW 19:27:11 37° NNW 19:27:11 37° NNW
BREEZE-M DEB (TANK) 3.9 19:22:21 10° WSW 19:27:40 40° WSW 19:27:40 40° WSW
Cosmos 1833 Rocket 3.2 19:26:21 10° NNW 19:31:28 56° W 19:31:28 56° W
Resurs 01 Rocket 4.1 19:35:40 15° N 19:35:40 15° N 19:36:31 10° N
Cosmos 1459 Rocket 4.1 19:26:12 10° NNW 19:32:12 73° W 19:32:12 73° W
ARGOS 3.8 19:34:28 53° NW 19:34:28 53° NW 19:38:48 10° NNW
Cosmos 1802 Rocket 4.2 19:33:16 10° N 19:38:55 68° NW 19:38:55 68° NW
Cosmos 2082 Rocket 3.1 19:41:46 10° NNW 19:45:57 46° NW 19:45:57 46° NW
ADEOS Rocket 4.4 20:09:56 10° N 20:17:13 45° WNW 20:24:08 10° SW
Cosmos 2278 Rocket 4.3 20:23:57 10° W 20:28:23 23° NW 20:28:36 23° NW
